Location: Newark
(23.1300°N, 73.6109°E)
Time: 18:50:24
(UTC+00:00)

Envisat - Visible Passes

Search period start: 15 May 2021 00:00
Search period end: 25 May 2021 00:00
Orbit: 764 x 766 km, 98.1° (Epoch: 14 May)

Date Brightness Start Highest point End Pass type
(mag) Time Alt. Az. Time Alt. Az. Time Alt. Az.
15 May 5.8 23:17:34 10° ENE 23:20:05 14° E 23:22:35 10° SE visible
17 May 5.1 23:41:17 10° NE 23:45:33 27° E 23:49:49 10° SSE visible
20 May 5.6 23:30:20 10° NE 23:34:04 20° E 23:37:46 10° SE visible
22 May 4.5 23:54:44 10° NNE 23:59:30 40° E 00:04:13 10° S visible
23 May 5.7 23:19:40 10° ENE 23:22:33 15° E 23:25:26 10° SE visible
